Regional Weather Roundup
Issued by NWS

Home | Current Version | Previous Version | Graphics & Text | Print | Product List | Glossary On
Versions: 1 2 3 4 5 6 7 8 9 10 11 12 13 14 15 16 17 18 19 20 21 22 23 24 25 26 27 28 29 30 31 32 33 34 35 36 37 38 39 40 41 42 43 44 45 46 47 48 49 50
000
ASUS43 KMKX 300600
RWRWI

WISCONSIN REGIONAL WEATHER ROUNDUP
NATIONAL WEATHER SERVICE MILWAUKEE/SULLIVAN WI
1200 AM CST FRI JAN 30 2015

NOTE: "FAIR" INDICATES FEW OR NO CLOUDS BELOW 12,000 FEET WITH NO
SIGNIFICANT WEATHER AND/OR OBSTRUCTIONS TO VISIBILITY.

WIZ001-002-006>008-014>016-023>028-300700-
NORTHWEST WISCONSIN

CITY           SKY/WX    TMP DP  RH WIND       PRES   REMARKS
SUPERIOR ARPT  PTCLDY     9   0  68 N8        30.54R WCI  -4
ASHLAND        CLOUDY    14   5  67 N10       30.49R WCI   1
6HR MIN TEMP:  14; 6HR MAX TEMP:  20;

HAYWARD        CLEAR      7   0  73 VRB3      30.46R
6HR MIN TEMP:   7; 6HR MAX TEMP:  19;

SIREN          CLEAR      9   1  71 N6        30.52R WCI  -1
CUMBERLAND     CLEAR      9   1  72 N8        30.47R WCI  -4
RICE LAKE      CLEAR      9   2  71 NW5       30.50R WCI   1
CHETEK         CLEAR      8   2  75 CALM      30.49R
LADYSMITH      CLOUDY    13   5  70 NW9       30.45S WCI   1
EAU CLAIRE     NOT AVBL
MENOMONIE      PTCLDY    14   5  68 NW10G16   30.50R WCI   1
NEW RICHMOND   CLEAR     10   4  75 N6        30.52R WCI   1
OSCEOLA        CLEAR     13   5  70 N7        30.55R WCI   3
$$

WIZ003>005-009-010-017-018-300700-
NORTH CENTRAL WISCONSIN

CITY           SKY/WX    TMP DP  RH WIND       PRES   REMARKS
MANITOWISH WTR LGT SNOW  12   7  81 N6        30.36R WCI   3
ARBOR VITAE    CLOUDY    17  10  76 N12       30.35R WCI   4
WOODRUFF       CLOUDY    17  10  76 N12       30.35R WCI   4
RHINELANDER    CLOUDY    14   3  61 NW9G18    30.34S WCI   2
6HR MIN TEMP:  14; 6HR MAX TEMP:  19; 6HR PCP: TRACE;

EAGLE RIVER    LGT SNOW  13   8  79 N13G18    30.33R WCI  -1
LAND O LAKES   LGT SNOW  13   8  78 N12       30.34R WCI  -1
PHILLIPS       CLOUDY    13   6  72 N6        30.38R WCI   4
TOMAHAWK       CLOUDY    15   6  68 NW10      30.37R WCI   2
MEDFORD        CLOUDY    15   6  68 NW12      30.38R WCI   1
MERRILL        CLOUDY    16   5  62 N10G18    30.37R WCI   4
$$

WIZ029-030-035-036-043>047-300700-
CENTRAL WISCONSIN

CITY           SKY/WX    TMP DP  RH WIND       PRES   REMARKS
WAUSAU         CLOUDY    17   5  59 N12G18    30.37R WCI   4
6HR MIN TEMP:  17; 6HR MAX TEMP:  26; 6HR PCP: TRACE;

MOSINEE        CLOUDY    18  10  73 NW12      30.38R WCI   5
MARSHFIELD     CLOUDY    17   6  62 NW12      30.39R WCI   4
6HR MIN TEMP:  17; 6HR MAX TEMP:  27;

STEVENS POINT  FLURRIES  18  10  69 N12G21    30.39R WCI   5
WAUPACA        PTCLDY    22   7  52 NW15G22   30.38R WCI   9
WAUTOMA        NOT AVBL
WISC RAPIDS    CLOUDY    20   8  60 NW9       30.41R WCI   9
6HR MIN TEMP:  20; 6HR MAX TEMP:  28;

CAMP DOUGLAS   NOT AVBL
$$

WIZ011>013-019>022-031-037>040-048>050-300700-
NORTHEAST WISCONSIN

CITY           SKY/WX    TMP DP  RH WIND       PRES   REMARKS
ANTIGO         CLOUDY    14   6  69 NW10      30.33R WCI   2
SHAWANO        MOCLDY    22  14  70 N5        30.37R WCI  16
OCONTO         CLOUDY    19   7  60 MISG      30.37R
STURGEON BAY   CLOUDY    16   9  73 N12       30.37R WCI   3
6HR MIN TEMP:  16; 6HR MAX TEMP:  27;

GREEN BAY      CLOUDY    21  12  68 N13       30.37R WCI   9
6HR MIN TEMP:  21; 6HR MAX TEMP:  29; 6HR PCP: TRACE;

MANITOWOC      NOT AVBL
APPLETON       MOCLDY    21  12  68 NW13      30.35R WCI   9
CLINTONVILLE   CLOUDY    23  12  63 N12       30.37R WCI  12
OSHKOSH        CLOUDY    22   9  57 NW12      30.36R WCI  10
6HR MIN TEMP:  22; 6HR MAX TEMP:  31; 6HR PCP: TRACE;

$$

WIZ032>034-041-042-053>061-300700-
SOUTHWEST WISCONSIN

CITY           SKY/WX    TMP DP  RH WIND       PRES   REMARKS
LA CROSSE      MOCLDY    20   9  62 N12       30.48R WCI   8
6HR MIN TEMP:  20; 6HR MAX TEMP:  30;

SPARTA         CLOUDY    20  10  63 NW9       30.45R WCI   9
VIROQUA        CLOUDY    20  12  71 N8        30.40R WCI  11
BOSCOBEL       CLOUDY    25  12  58 N14       30.45R WCI  13
6HR MIN TEMP:  25; 6HR MAX TEMP:  35;

PRAIRIE DU CHI MOCLDY    24  11  56 NW10G18   30.46R WCI  14
PLATTEVILLE    MOCLDY    25  14  64 NW12      30.39R WCI  14
$$

WIZ056-057-062-063-064-067-068-300700-
SOUTH CENTRAL WISCONSIN

CITY           SKY/WX    TMP DP  RH WIND       PRES   REMARKS
REEDSBURG      CLOUDY    22  11  64 N9G18     30.40R WCI  12
BARABOO/DELLS  CLOUDY    22  10  59 N13       30.39R WCI  10
LONE ROCK      NOT AVBL
MINERAL POINT  CLOUDY    28  18  64 NW15      30.37R WCI  17
MADISON        CLOUDY    26  13  57 N8        30.37R WCI  18
6HR MIN TEMP:  26; 6HR MAX TEMP:  33; 6HR PCP: TRACE;

MIDDLETON      CLOUDY    27  14  57 N16G24    30.37R WCI  15
WATERTOWN      CLOUDY    24  13  62 N10G16    30.35R WCI  14
MONROE         CLOUDY    28  18  64 NW9G21    30.35R WCI  20
JANESVILLE     PTCLDY    28  14  54 N13       30.34R WCI  18
$$

WIZ051-052-058>065-066-070>072-300700-
SOUTHEAST WISCONSIN

CITY           SKY/WX    TMP DP  RH WIND       PRES   REMARKS
MILWAUKEE      MOCLDY    26   8  46 N18G28    30.33R WCI  13
6HR MIN TEMP:  26; 6HR MAX TEMP:  35; 6HR PCP: TRACE;

WAUKESHA       CLOUDY    23  10  58 N13       30.34R WCI  11
MILWAUKEE/TIMM CLOUDY    27   9  46 N12G21    30.34R WCI  16
RACINE         CLOUDY    26   9  48 N14G26    30.34R WCI  14
6HR MIN TEMP:  26; 6HR MAX TEMP:  35;

BURLINGTON     CLOUDY    25  11  56 N16       30.34R WCI  12
KENOSHA        CLOUDY    27  12  53 N12G21    30.32R WCI  17
6HR MIN TEMP:  27; 6HR MAX TEMP:  35;

FOND DU LAC    CLOUDY    22   8  55 N13       30.36R WCI  10
6HR MIN TEMP:  22; 6HR MAX TEMP:  33; 6HR PCP: TRACE;

SHEBOYGAN      CLOUDY    23  12  62 N13       30.34R WCI  11
6HR MIN TEMP:  23; 6HR MAX TEMP:  32; 6HR PCP: TRACE;

WEST BEND      CLOUDY    23  10  58 N9        30.33R WCI  13
JUNEAU         CLOUDY    23  10  56 NW14      30.35R WCI  11
$$

LSZ147-162-300700-
LAKE SUPERIOR

STATION/POSITION TIME  TEMP    WIND        PRES    WAVE
                       AIR SEA DIR/SP/G            HT/PER
                 (UTC) (F)     (DEG/KT/KT) (MB)    (FT/S)
DEVILS ISLAND    0500   14     330/ 12/ 15 1033.7R
PORT WING        0540   16     310/ 11/ 17 1032.8R
SAXON HARBOR     0500   17     340/ 12/ 19 1031.5R
$$

LMZ867-665-643>646-300700-
LAKE MICHIGAN

STATION/POSITION TIME  TEMP    WIND        PRES    WAVE
                       AIR SEA DIR/SP/G            HT/PER
                 (UTC) (F)     (DEG/KT/KT) (MB)    (FT/S)
NORTHPORT PIER   0501   19     330/ 23/ 27 1026.8R
SISTER BAY       0458   16     340/ 28/ 35   N/A
KEWAUNEE LAKESHO 0500   18     350/  6/ 10 1026.4R
SHEBOYGAN LAKESH 0500   25     350/ 18/ 23 1028.1R
PORT WASHINGTON  0500   26     340/  7/ 14 1027.8R
MILWAUKEE LAKESH 0500   27     350/ 20/ 23   N/A
KENOSHA   LAKESH 0500   29     360/ 24/ 28 1025.4R
$$

TC  - TEMPERATURE IN CELSIUS
VSB - VISIBILITY IN STATUTE MILES
WCI - WIND CHILL INDEX
HX  - HEAT INDEX




USA.gov is the U.S. government's official web portal to all federal, state and local government web resources and services.